PRPRX SBSP-SBCY

Flight info

Callsign PRPRX
Flight time N/A
Altitude 26000
Route GERTU UL201 ROBID DCT RODAD UM775 SINIP
Aircraft BE20/L-SBGRY/S

Departure

Time N/A
Airport Congonhas–Deputado Freitas Nobre Airport (SBSP)

Arrival

Time 2026-04-15 20:50
Airport Várzea Grande–Marechal Rondon International Airport (SBCY)
Time Latitude Longitude Altitude Speed Heading
2026-04-15 20:35 -16.20110 -55.92619 8648 ft 152 kts 350°
2026-04-15 20:35 -16.19083 -55.92839 8486 ft 149 kts 351°
2026-04-15 20:35 -16.18095 -55.93048 8336 ft 145 kts 351°
2026-04-15 20:36 -16.17113 -55.93256 8182 ft 143 kts 351°
2026-04-15 20:36 -16.16150 -55.93460 8039 ft 140 kts 351°
2026-04-15 20:36 -16.15205 -55.93660 7892 ft 137 kts 351°
2026-04-15 20:36 -16.14279 -55.93857 7752 ft 135 kts 351°
2026-04-15 20:37 -16.13367 -55.94049 7617 ft 133 kts 351°
2026-04-15 20:37 -16.12457 -55.94241 7477 ft 135 kts 351°
2026-04-15 20:37 -16.11524 -55.94439 7340 ft 138 kts 351°
2026-04-15 20:37 -16.10576 -55.94639 7191 ft 140 kts 351°
2026-04-15 20:38 -16.09624 -55.94838 7055 ft 142 kts 351°
2026-04-15 20:38 -16.08646 -55.95042 6905 ft 144 kts 351°
2026-04-15 20:38 -16.07651 -55.95251 6753 ft 147 kts 351°
2026-04-15 20:38 -16.06647 -55.95464 6603 ft 148 kts 351°
2026-04-15 20:39 -16.05633 -55.95677 6445 ft 149 kts 351°
2026-04-15 20:39 -16.04612 -55.95894 6292 ft 150 kts 351°
2026-04-15 20:39 -16.03595 -55.96105 6124 ft 146 kts 351°
2026-04-15 20:39 -16.02622 -55.96313 5973 ft 139 kts 351°
2026-04-15 20:40 -16.01711 -55.96508 5830 ft 132 kts 351°
2026-04-15 20:40 -16.00836 -55.96697 5697 ft 125 kts 351°
2026-04-15 20:40 -15.99979 -55.96882 5569 ft 127 kts 351°
2026-04-15 20:40 -15.99100 -55.97067 5441 ft 131 kts 351°
2026-04-15 20:41 -15.98185 -55.97255 5307 ft 136 kts 351°
2026-04-15 20:41 -15.97239 -55.97450 5165 ft 139 kts 351°
2026-04-15 20:41 -15.96288 -55.97650 5019 ft 139 kts 351°
2026-04-15 20:41 -15.95339 -55.97850 4877 ft 139 kts 350°
2026-04-15 20:42 -15.94392 -55.98051 4733 ft 138 kts 351°
2026-04-15 20:42 -15.93465 -55.98247 4589 ft 137 kts 350°
2026-04-15 20:42 -15.92535 -55.98445 4447 ft 136 kts 350°
2026-04-15 20:42 -15.91608 -55.98639 4305 ft 136 kts 351°
2026-04-15 20:43 -15.90687 -55.98834 4166 ft 135 kts 350°
2026-04-15 20:43 -15.89770 -55.99027 4028 ft 135 kts 350°
2026-04-15 20:43 -15.88850 -55.99221 3884 ft 134 kts 350°
2026-04-15 20:43 -15.88014 -55.99567 3854 ft 126 kts 331°
2026-04-15 20:44 -15.87281 -55.99966 3903 ft 109 kts 336°
2026-04-15 20:44 -15.86495 -56.00418 3977 ft 142 kts 335°
2026-04-15 20:44 -15.85582 -56.00854 3907 ft 149 kts 336°
2026-04-15 20:44 -15.84659 -56.01334 3789 ft 150 kts 334°
2026-04-15 20:45 -15.83724 -56.01837 3657 ft 152 kts 334°
2026-04-15 20:45 -15.82769 -56.02345 3520 ft 154 kts 335°
2026-04-15 20:45 -15.81821 -56.02838 3382 ft 148 kts 335°
2026-04-15 20:45 -15.80925 -56.03293 3263 ft 138 kts 335°
2026-04-15 20:46 -15.80088 -56.03718 3144 ft 132 kts 335°
2026-04-15 20:46 -15.79259 -56.04148 3025 ft 135 kts 334°
2026-04-15 20:46 -15.78416 -56.04591 2903 ft 137 kts 334°
2026-04-15 20:46 -15.77572 -56.05036 2785 ft 139 kts 334°
2026-04-15 20:47 -15.76717 -56.05483 2660 ft 136 kts 335°
2026-04-15 20:47 -15.75873 -56.05924 2539 ft 135 kts 334°
2026-04-15 20:47 -15.75040 -56.06360 2421 ft 133 kts 334°
2026-04-15 20:47 -15.74215 -56.06794 2301 ft 133 kts 334°
2026-04-15 20:48 -15.73399 -56.07229 2173 ft 132 kts 334°
2026-04-15 20:48 -15.72569 -56.07673 1990 ft 135 kts 334°
2026-04-15 20:48 -15.71734 -56.08119 1808 ft 134 kts 334°
2026-04-15 20:48 -15.70924 -56.08558 1645 ft 129 kts 333°
2026-04-15 20:49 -15.70141 -56.08992 1365 ft 129 kts 331°
2026-04-15 20:49 -15.69352 -56.09420 1114 ft 136 kts 333°
2026-04-15 20:49 -15.68506 -56.09877 986 ft 136 kts 331°
2026-04-15 20:49 -15.67693 -56.10349 879 ft 131 kts 329°
2026-04-15 20:50 -15.66894 -56.10797 781 ft 130 kts 331°
2026-04-15 20:50 -15.66083 -56.11248 635 ft 134 kts 332°
2026-04-15 20:50 -15.65318 -56.11654 595 ft 84 kts 330°
2026-04-15 20:50 -15.65013 -56.11820 593 ft 36 kts 334°
2026-04-15 20:51 -15.64812 -56.11930 592 ft 32 kts 336°
2026-04-15 20:51 -15.64665 -56.12024 592 ft 12 kts 343°
2026-04-15 20:51 -15.64671 -56.11994 592 ft 12 kts 164°
2026-04-15 20:51 -15.64764 -56.11950 592 ft 17 kts 155°
2026-04-15 20:52 -15.64886 -56.11887 592 ft 22 kts 152°
2026-04-15 20:52 -15.65016 -56.11816 594 ft 17 kts 163°
2026-04-15 20:52 -15.65070 -56.11845 594 ft 0 kts 247°
2026-04-15 20:54 -15.65076 -56.11858 594 ft 6 kts 244°
2026-04-15 20:54 -15.65111 -56.11893 593 ft 7 kts 176°
2026-04-15 20:54 -15.65179 -56.11859 593 ft 14 kts 154°
2026-04-15 20:54 -15.65263 -56.11815 593 ft 13 kts 150°
2026-04-15 20:55 -15.65342 -56.11771 594 ft 12 kts 153°
2026-04-15 20:55 -15.65378 -56.11778 593 ft 9 kts 244°
2026-04-15 20:55 -15.65413 -56.11796 593 ft 0 kts 152°